Wind_Speed
12 13 14 14 14 14 15 16 16 15 13 13 13 13 15 15 18 18 19 22 26 28 28 28 28 29 28 30 29 27 24 30 28 26 24 18 24 25 27 23 23 23 23 23 20
14 15 16 17 18 17 17 16 17 17 17 14 13 11 12 13 14 14 16 18 21 25 28 30 31 30 30 30 28 30 27 32 26 23 25 21 23 19 28 27 26 24 24 24 21
15 17 19 19 19 19 18 17 16 14 14 16 16 16 15 13 12 12 12 14 15 18 22 27 29 30 31 31 27 23 35 25 24 24 27 23 25 22 31 29 27 25 27 26 24
16 18 18 18 18 17 17 16 15 14 13 13 15 15 13 15 11 14 16 16 17 18 16 18 24 28 31 32 27 33 29 27 30 26 28 26 24 24 30 29 27 28 25 27 23
17 18 18 19 20 19 17 15 14 14 13 13 13 13 16 14 13 14 17 17 18 18 17 18 18 23 28 26 24 29 29 31 27 32 29 29 30 27 27 23 32 33 31 29 28
15 16 17 18 19 19 16 14 13 12 11 12 12 13 14 12 14 15 16 19 18 17 17 18 20 20 24 31 33 22 20 30 36 33 30 31 36 35 37 29 31 36 34 31 33
13 14 16 17 18 17 15 13 13 13 13 14 13 11 8 11 14 16 18 18 19 18 18 19 19 19 23 23 24 31 35 35 30 30 33 26 45 44 33 29 35 38 38 36 34
12 14 16 16 17 16 14 12 13 12 14 15 13 13 8 14 17 18 18 18 18 19 19 19 18 20 23 24 25 25 25 30 29 30 31 27 61 32 29 36 37 37 41 39 37
14 15 15 16 15 14 12 12 14 14 17 17 13 9 15 20 21 19 20 19 17 17 17 19 19 18 18 19 19 15 23 22 19 22 25 34 54 30 25 29 36 38 37 40 40
13 13 15 15 14 12 11 13 14 14 17 14 13 7 17 22 23 22 23 23 20 17 18 16 18 13 11 10 13 12 19 22 24 20 22 29 43 34 32 32 37 35 36 36 45
11 12 12 12 11 10 10 13 16 15 18 12 8 11 16 19 19 24 25 25 26 21 16 15 14 11 15 15 18 21 24 28 26 24 24 29 35 30 35 38 41 36 37 35 39
10 10 9 10 8 9 12 15 16 17 16 4 9 11 19 21 15 23 25 28 27 16 17 12 16 8 15 15 16 18 23 27 27 25 29 33 43 38 37 46 44 45 39 36 37
9 9 8 8 8 9 13 14 15 16 14 1 8 13 21 21 12 22 25 26 26 15 14 15 15 15 15 17 17 19 23 25 27 23 26 31 52 43 46 38 43 52 50 46 40
8 8 8 7 9 11 12 14 15 16 2 3 9 13 21 21 14 21 22 23 18 15 19 9 14 16 19 20 16 23 18 18 22 22 23 14 18 24 23 38 54 52 57 44 49
7 7 7 9 9 10 13 14 15 10 2 8 11 16 20 16 20 21 22 23 20 16 13 12 16 17 19 17 14 20 15 17 19 23 25 27 25 19 14 32 33 44 49 55 55
8 7 7 8 9 10 13 14 12 3 1 10 13 19 17 17 21 19 22 24 16 16 16 19 22 16 15 13 15 14 17 19 21 21 20 26 26 34 28 29 22 24 41 36 51
7 8 7 9 9 10 12 14 4 2 10 7 16 18 14 18 18 20 21 15 11 14 17 24 10 11 11 19 14 10 13 6 5 7 10 16 22 45 20 25 29 30 30 36 43
8 8 8 8 9 9 11 11 2 4 9 14 16 13 13 19 17 22 17 8 11 13 17 13 14 8 10 16 17 22 18 7 8 8 13 24 10 25 15 19 24 31 31 32 39
9 9 9 9 9 9 9 4 4 8 9 12 14 10 12 17 17 20 14 5 9 10 13 11 11 18 19 14 17 9 16 15 19 33 21 13 25 34 26 29 34 33 36 35 39
11 11 11 10 10 9 8 6 6 8 9 10 8 7 14 17 15 18 9 8 10 8 16 13 24 14 10 24 13 11 17 9 7 5 8 11 21 23 15 24 27 26 27 31 43
13 13 12 11 10 10 9 7 9 9 9 9 11 11 14 16 19 14 11 14 6 15 16 16 14 20 24 8 13 16 10 12 15 12 5 7 9 12 22 27 31 33 38 33 37
13 15 12 12 11 9 10 8 9 9 9 11 11 10 13 16 16 11 11 11 15 20 25 13 13 20 31 14 11 12 21 20 10 8 16 18 19 17 30 35 38 37 34 32 35
17 16 16 14 11 11 11 10 10 9 10 10 10 12 16 16 12 15 14 20 14 26 18 16 7 15 13 5 10 22 24 21 28 26 26 9 7 27 29 31 29 31 26 25 31
19 16 18 18 16 15 12 11 10 9 10 10 12 14 16 18 17 14 22 15 25 24 10 7 14 15 19 27 27 34 25 21 19 13 19 16 32 34 33 28 22 19 22 22 28
23 23 19 11 11 13 12 12 11 11 10 11 12 13 16 18 22 17 20 26 22 8 11 14 23 22 23 28 24 20 20 20 14 16 10 25 27 35 36 32 24 7 7 14 25
27 25 20 19 15 15 15 14 11 11 11 13 13 17 18 20 19 26 26 25 23 17 20 15 15 20 31 12 15 20 13 12 19 24 19 16 22 34 34 29 27 18 5 6 16
31 25 23 19 17 17 17 14 11 11 12 12 14 17 18 19 22 25 26 27 25 18 19 13 9 18 10 21 11 1 21 17 14 26 27 25 22 31 33 33 29 27 16 14 16
Wind_Direction
312 318 323 323 320 319 318 318 317 319 318 311 306 301 296 293 289 284 275 268 258 256 250 250 251 245 240 240 242 238 233 239 239 239 250 244 242 248 241 240 242 244 242 252 269
320 322 325 329 329 333 333 333 332 332 331 326 317 310 304 302 298 288 285 276 270 261 253 247 246 248 244 243 242 235 238 239 243 248 249 248 252 242 247 245 247 245 245 250 259
324 328 329 334 335 338 339 341 345 345 342 336 333 330 324 316 303 296 295 292 285 271 265 254 249 247 246 243 236 239 241 243 245 245 246 243 247 247 252 246 248 248 255 252 256
328 328 332 334 334 335 340 345 349 349 352 347 342 339 335 329 326 302 299 297 292 290 284 268 252 245 245 244 248 245 246 246 244 239 247 243 244 246 248 245 247 244 244 248 247
327 329 335 337 337 341 343 346 352 355 358 355 353 348 338 337 330 316 312 311 307 299 290 283 271 255 247 247 242 244 249 244 251 247 245 250 247 245 244 249 242 246 243 244 247
329 331 337 337 339 339 344 351 359 5 2 359 355 350 342 346 336 340 334 326 319 310 300 287 278 270 260 250 243 241 242 243 243 245 247 253 251 248 244 247 242 244 243 243 245
331 338 339 339 335 338 347 352 360 4 0 355 352 352 4 9 349 343 337 330 323 315 300 288 282 272 266 268 257 249 256 245 240 246 244 255 254 244 247 243 245 243 243 244 243
341 340 340 336 336 342 349 356 360 4 3 358 357 360 3 358 356 347 339 328 320 311 306 298 286 274 274 271 261 264 265 262 256 249 247 247 256 252 251 246 245 240 244 242 240
342 340 338 337 340 343 351 4 359 357 359 357 0 359 3 349 356 357 353 344 336 322 313 305 301 298 291 289 284 261 260 262 268 254 246 239 258 253 245 240 246 244 241 247 238
338 339 339 340 342 348 354 358 351 353 354 355 13 3 356 354 357 1 2 358 353 343 329 321 321 313 297 285 269 287 277 270 268 259 247 253 259 255 249 244 243 241 240 237 245
334 341 340 340 345 350 354 354 347 345 348 354 19 26 2 358 354 1 2 1 356 353 334 325 319 298 295 286 279 279 279 275 270 263 265 265 263 256 233 234 234 236 242 234 245
333 340 346 348 346 357 354 352 349 338 337 348 10 4 360 354 351 356 357 1 357 342 336 327 298 303 304 296 296 291 283 279 279 271 263 271 266 261 250 236 237 236 231 237 237
332 337 351 349 348 354 347 349 341 329 331 269 358 353 355 353 347 350 353 354 355 352 332 307 301 296 306 303 294 295 283 282 278 282 267 272 275 265 253 246 243 235 232 225 226
327 339 345 349 344 342 344 342 336 328 311 338 342 347 351 354 348 346 347 352 356 335 343 332 327 318 309 300 302 292 296 287 277 277 270 264 281 270 258 253 242 236 234 233 224
321 336 340 338 334 336 341 340 339 337 290 334 337 342 346 350 342 348 346 345 344 333 322 327 322 310 302 302 299 286 288 288 279 272 275 261 269 291 268 254 250 245 245 236 236
315 324 327 322 326 334 336 341 342 1 298 328 336 340 341 346 348 345 346 344 344 341 324 322 327 313 325 320 325 289 289 287 277 266 257 263 242 281 262 257 254 252 237 246 235
299 310 308 311 325 325 336 345 348 44 325 327 334 337 341 348 348 346 344 351 359 350 333 325 310 306 334 327 325 296 287 290 249 221 255 267 235 243 261 264 265 258 251 247 239
286 293 296 304 307 317 333 344 323 312 323 325 332 336 343 352 348 345 346 344 344 6 332 330 319 313 321 311 306 301 263 258 294 291 311 298 250 245 257 263 272 241 246 240 235
281 287 284 294 291 310 325 327 311 318 321 326 330 336 340 346 344 342 339 347 348 352 359 318 286 295 300 311 292 304 284 279 268 271 264 246 264 275 262 275 272 264 268 245 225
271 277 274 279 281 294 308 307 302 315 318 321 330 319 327 337 344 346 354 325 329 318 342 309 299 305 304 317 326 278 283 292 256 286 304 280 258 259 274 254 268 264 269 252 227
262 266 271 269 270 280 287 288 310 313 316 320 314 308 320 327 335 343 349 338 324 313 328 313 282 292 309 293 321 319 280 290 275 268 290 316 319 280 279 281 274 273 264 264 232
257 257 266 262 257 264 277 292 310 309 310 310 310 309 315 320 322 316 329 343 323 331 325 312 296 292 300 296 279 316 328 318 288 284 282 280 282 296 305 295 285 278 261 249 226
250 257 255 255 248 265 267 287 297 300 307 309 304 312 313 314 316 306 312 322 307 329 319 313 291 311 324 322 333 314 318 303 300 293 277 291 319 345 335 315 290 282 257 230 224
244 244 252 253 255 259 267 278 280 293 301 302 301 306 306 308 308 294 302 313 317 324 318 301 280 276 277 283 302 308 321 328 315 283 308 303 325 351 351 348 322 267 251 227 218
240 245 250 253 251 248 250 266 278 283 295 296 298 301 300 303 310 303 311 313 323 323 309 308 293 296 289 292 295 310 309 334 348 335 314 321 341 346 351 2 0 338 232 212 215
238 240 248 251 248 247 252 264 273 277 288 292 293 296 299 303 303 300 307 312 313 307 308 311 287 304 308 316 309 301 342 360 10 2 348 343 340 352 354 13 24 28 71 167 196
236 243 245 249 245 248 254 262 270 277 287 287 294 296 300 309 307 310 310 304 300 300 307 303 296 326 282 331 329 27 351 9 350 356 2 351 346 351 358 11 29 40 59 108 120
Height
3132 3131 3129 3127 3126 3124 3121 3118 3115 3111 3109 3106 3105 3103 3102 3102 3102 3101 3101 3102 3102 3103 3105 3106 3108 3110 3112 3113 3116 3119 3119 3117 3118 3121 3123 3126 3124 3125 3126 3128 3128 3130 3131 3131 3132
3131 3129 3127 3125 3123 3121 3119 3117 3114 3111 3109 3107 3104 3102 3100 3099 3098 3097 3097 3096 3096 3096 3098 3100 3102 3105 3106 3109 3110 3111 3111 3111 3117 3118 3119 3121 3120 3123 3122 3123 3124 3126 3127 3128 3129
3129 3127 3126 3123 3121 3118 3116 3114 3112 3109 3107 3105 3103 3102 3099 3098 3097 3094 3093 3093 3093 3093 3093 3094 3096 3099 3101 3102 3104 3105 3102 3109 3111 3114 3115 3115 3116 3117 3115 3118 3120 3123 3123 3124 3125
3128 3126 3124 3121 3119 3117 3114 3111 3109 3107 3105 3104 3102 3099 3098 3097 3100 3095 3093 3092 3091 3090 3090 3090 3091 3093 3094 3096 3099 3098 3100 3100 3103 3107 3107 3107 3110 3111 3110 3114 3115 3116 3118 3118 3121
3127 3125 3122 3120 3118 3115 3113 3111 3108 3106 3104 3103 3101 3099 3096 3096 3096 3093 3091 3091 3089 3088 3087 3086 3087 3087 3088 3090 3093 3091 3094 3095 3096 3098 3099 3102 3100 3103 3103 3108 3109 3110 3112 3114 3115
3125 3123 3121 3119 3116 3114 3112 3109 3108 3105 3104 3102 3100 3098 3097 3097 3094 3092 3090 3088 3086 3085 3083 3082 3083 3083 3082 3082 3084 3088 3086 3085 3086 3088 3092 3093 3092 3095 3096 3101 3102 3102 3106 3108 3110
3123 3121 3120 3118 3116 3114 3111 3109 3107 3106 3104 3102 3100 3097 3096 3096 3094 3092 3089 3086 3083 3081 3079 3078 3078 3079 3076 3077 3079 3077 3075 3078 3079 3083 3085 3090 3077 3079 3091 3095 3095 3096 3098 3101 3104
3121 3120 3118 3116 3115 3113 3111 3109 3106 3106 3103 3101 3099 3097 3096 3096 3093 3091 3088 3085 3082 3079 3076 3074 3074 3073 3072 3072 3072 3073 3072 3069 3075 3078 3082 3085 3050 3080 3086 3087 3086 3089 3090 3093 3097
3120 3118 3117 3115 3113 3112 3110 3108 3106 3105 3103 3100 3098 3096 3096 3094 3093 3089 3086 3082 3080 3076 3073 3072 3070 3069 3070 3069 3069 3069 3064 3066 3068 3072 3075 3074 3054 3074 3078 3078 3078 3081 3084 3085 3089
3119 3118 3116 3115 3113 3111 3110 3108 3106 3104 3103 3100 3098 3098 3096 3093 3090 3087 3084 3081 3078 3075 3072 3071 3069 3068 3069 3070 3067 3066 3064 3063 3063 3067 3067 3063 3055 3065 3069 3070 3069 3074 3076 3080 3079
3119 3117 3116 3115 3113 3111 3110 3108 3109 3105 3102 3100 3100 3097 3096 3093 3089 3085 3082 3079 3075 3072 3071 3069 3069 3069 3068 3067 3066 3064 3061 3058 3059 3060 3056 3052 3047 3049 3053 3054 3054 3062 3067 3071 3071
3118 3116 3114 3113 3112 3111 3110 3107 3106 3105 3101 3099 3098 3096 3094 3091 3088 3085 3083 3079 3075 3072 3069 3070 3067 3067 3064 3063 3061 3059 3057 3054 3052 3053 3053 3048 3037 3042 3044 3044 3047 3051 3055 3061 3066
3116 3115 3112 3112 3111 3110 3109 3107 3105 3103 3101 3099 3097 3095 3093 3090 3086 3084 3081 3077 3074 3071 3070 3068 3065 3063 3061 3059 3058 3058 3054 3051 3049 3049 3046 3044 3022 3027 3029 3033 3034 3036 3041 3046 3053
3114 3113 3112 3110 3112 3110 3108 3106 3104 3101 3098 3101 3097 3095 3092 3088 3085 3082 3078 3077 3073 3070 3067 3065 3062 3060 3058 3056 3057 3053 3051 3047 3046 3045 3040 3043 3012 3015 3020 3017 3021 3025 3031 3036 3043
3113 3111 3110 3109 3109 3109 3108 3105 3101 3099 3100 3101 3097 3095 3091 3090 3087 3080 3077 3073 3071 3070 3069 3066 3061 3058 3055 3054 3053 3048 3046 3045 3043 3039 3037 3035 3034 3003 3009 3005 3011 3015 3020 3026 3032
3111 3110 3109 3109 3109 3108 3106 3103 3100 3101 3098 3099 3096 3094 3091 3088 3084 3080 3077 3072 3070 3068 3064 3061 3059 3056 3054 3051 3049 3047 3044 3040 3037 3036 3026 3030 3030 2993 3001 3004 3006 3008 3013 3015 3021
3109 3109 3108 3108 3108 3107 3105 3102 3101 3098 3101 3099 3095 3092 3090 3087 3083 3080 3076 3073 3071 3067 3065 3059 3058 3055 3052 3050 3048 3044 3043 3037 3030 3028 3015 3015 3014 2987 2996 2999 3000 3001 3004 3007 3010
3107 3107 3107 3106 3106 3106 3104 3102 3100 3098 3097 3097 3094 3091 3089 3086 3083 3079 3076 3075 3071 3069 3066 3062 3055 3055 3052 3051 3047 3043 3041 3040 3026 3017 3010 3010 2998 2988 2991 2990 2990 2991 2994 2996 3001
3104 3104 3105 3104 3105 3104 3104 3101 3100 3097 3096 3094 3092 3089 3087 3085 3083 3078 3075 3074 3073 3070 3070 3064 3056 3052 3049 3045 3046 3040 3036 3036 3029 3018 3014 3000 2992 2985 2986 2984 2983 2983 2984 2985 2990
3102 3102 3102 3102 3103 3102 3103 3101 3098 3096 3094 3093 3091 3090 3086 3084 3081 3078 3075 3074 3073 3071 3070 3065 3052 3048 3046 3042 3039 3037 3035 3032 3027 3013 3003 2990 2986 2981 2978 2977 2976 2975 2974 2974 2979
3099 3099 3099 3099 3100 3101 3100 3098 3096 3095 3094 3092 3089 3088 3085 3082 3079 3077 3076 3074 3071 3069 3067 3064 3058 3048 3044 3040 3037 3034 3030 3030 3026 3021 3009 2992 2983 2979 2974 2972 2968 2967 2965 2965 2967
3095 3096 3096 3097 3099 3096 3097 3096 3095 3093 3092 3089 3087 3085 3083 3080 3077 3075 3074 3072 3070 3067 3063 3062 3056 3047 3039 3035 3035 3034 3030 3028 3022 3015 3009 3002 2982 2978 2972 2964 2957 2955 2952 2954 2958
3090 3092 3092 3094 3094 3093 3094 3093 3092 3091 3089 3087 3086 3084 3081 3079 3077 3072 3071 3070 3067 3065 3062 3060 3056 3047 3037 3035 3034 3031 3027 3024 3019 3014 3002 2997 2981 2976 2968 2957 2949 2943 2942 2945 2951
3087 3087 3087 3089 3089 3091 3091 3090 3090 3089 3086 3084 3083 3082 3079 3076 3075 3071 3069 3067 3065 3061 3058 3057 3054 3051 3046 3036 3034 3026 3022 3019 3014 3008 3000 2992 2984 2976 2966 2953 2942 2937 2936 2939 2942
3082 3081 3083 3084 3085 3087 3088 3088 3087 3087 3084 3083 3080 3079 3077 3074 3071 3067 3065 3063 3060 3058 3057 3056 3048 3044 3038 3033 3030 3025 3021 3017 3012 3007 3000 2991 2985 2976 2966 2953 2943 2936 2935 2936 2940
3076 3077 3079 3081 3082 3083 3084 3084 3084 3084 3082 3080 3078 3076 3074 3071 3070 3064 3062 3060 3058 3055 3052 3051 3045 3040 3029 3027 3025 3022 3021 3016 3011 3004 2998 2992 2983 2975 2968 2959 2947 2940 2937 2937 2940
3069 3071 3077 3077 3078 3080 3081 3082 3081 3081 3080 3077 3076 3074 3072 3069 3064 3061 3059 3055 3053 3052 3049 3047 3045 3040 3028 3025 3021 3022 3019 3015 3011 3006 2999 2992 2987 2977 2970 2963 2954 2947 2945 2943 2944